Year,Month,Day,Hour,Minute,Value (Times are PST for temperature in C)
2007,10,08,00,00,7.10
2007,10,08,00,01,7.00
2007,10,08,00,02,6.90
2007,10,08,00,03,6.80
2007,10,08,00,04,6.80
2007,10,08,00,05,6.70
2007,10,08,00,06,6.60
2007,10,08,00,07,6.60
2007,10,08,00,08,6.60
2007,10,08,00,09,6.60
2007,10,08,00,10,6.60
2007,10,08,00,11,6.60
2007,10,08,00,12,6.70
2007,10,08,00,13,6.70
2007,10,08,00,14,6.70
2007,10,08,00,15,6.70
2007,10,08,00,16,6.80
2007,10,08,00,17,6.80
2007,10,08,00,18,6.80
2007,10,08,00,19,6.80
2007,10,08,00,20,6.90
2007,10,08,00,21,6.90
2007,10,08,00,22,7.00
2007,10,08,00,23,7.00
2007,10,08,00,24,7.10
2007,10,08,00,25,7.10
2007,10,08,00,26,7.10
2007,10,08,00,27,7.10
2007,10,08,00,28,7.20
2007,10,08,00,29,7.20
2007,10,08,00,30,7.20
2007,10,08,00,31,7.20
2007,10,08,00,32,7.20
2007,10,08,00,33,7.20
2007,10,08,00,34,7.20
2007,10,08,00,35,7.30
2007,10,08,00,36,7.30
2007,10,08,00,37,7.30
2007,10,08,00,38,7.30
2007,10,08,00,39,7.30
2007,10,08,00,40,7.30
2007,10,08,00,41,7.40
2007,10,08,00,42,7.40
2007,10,08,00,43,7.50
2007,10,08,00,44,7.50
2007,10,08,00,45,7.50
2007,10,08,00,46,7.50
2007,10,08,00,47,7.50
2007,10,08,00,48,7.50
2007,10,08,00,49,7.50
2007,10,08,00,50,7.50
2007,10,08,00,51,7.50
2007,10,08,00,52,7.50
2007,10,08,00,53,7.40
2007,10,08,00,54,7.40
2007,10,08,00,55,7.40
2007,10,08,00,56,7.30
2007,10,08,00,57,7.30
2007,10,08,00,58,7.20
2007,10,08,00,59,7.20
2007,10,08,01,00,7.10
2007,10,08,01,01,7.00
2007,10,08,01,02,7.00
2007,10,08,01,03,6.90
2007,10,08,01,04,6.80
2007,10,08,01,05,6.70
2007,10,08,01,06,6.60
2007,10,08,01,07,6.50
2007,10,08,01,08,6.40
2007,10,08,01,09,6.30
2007,10,08,01,10,6.20
2007,10,08,01,11,6.10
2007,10,08,01,12,6.10
2007,10,08,01,13,6.00
2007,10,08,01,14,6.00
2007,10,08,01,15,5.90
2007,10,08,01,16,5.90
2007,10,08,01,17,5.90
2007,10,08,01,18,5.90
2007,10,08,01,19,5.90
2007,10,08,01,20,5.90
2007,10,08,01,21,5.90
2007,10,08,01,22,5.90
2007,10,08,01,23,5.90
2007,10,08,01,24,5.90
2007,10,08,01,25,5.80
2007,10,08,01,26,5.80
2007,10,08,01,27,5.70
2007,10,08,01,28,5.70
2007,10,08,01,29,5.70
2007,10,08,01,30,5.70
2007,10,08,01,31,5.60
2007,10,08,01,32,5.60
2007,10,08,01,33,5.50
2007,10,08,01,34,5.50
2007,10,08,01,35,5.50
2007,10,08,01,36,5.50
2007,10,08,01,37,5.60
2007,10,08,01,38,5.60
2007,10,08,01,39,5.60
2007,10,08,01,40,5.60
2007,10,08,01,41,5.60
2007,10,08,01,42,5.60
2007,10,08,01,43,5.60
2007,10,08,01,44,5.60
2007,10,08,01,45,5.50
2007,10,08,01,46,5.50
2007,10,08,01,47,5.50
2007,10,08,01,48,5.50
2007,10,08,01,49,5.40
2007,10,08,01,50,5.40
2007,10,08,01,51,5.40
2007,10,08,01,52,5.40
2007,10,08,01,53,5.40
2007,10,08,01,54,5.40
2007,10,08,01,55,5.50
2007,10,08,01,56,5.50
2007,10,08,01,57,5.40
2007,10,08,01,58,5.40
2007,10,08,01,59,5.40
2007,10,08,02,00,5.30
2007,10,08,02,01,5.30
2007,10,08,02,02,5.30
2007,10,08,02,03,5.30
2007,10,08,02,04,5.30
2007,10,08,02,05,5.30
2007,10,08,02,06,5.30
2007,10,08,02,07,5.30
2007,10,08,02,08,5.20
2007,10,08,02,09,5.20
2007,10,08,02,10,5.20
2007,10,08,02,11,5.20
2007,10,08,02,12,5.20
2007,10,08,02,13,5.20
2007,10,08,02,14,5.20
2007,10,08,02,15,5.20
2007,10,08,02,16,5.20
2007,10,08,02,17,5.20
2007,10,08,02,18,5.10
2007,10,08,02,19,5.10
2007,10,08,02,20,5.10
2007,10,08,02,21,5.10
2007,10,08,02,22,5.10
2007,10,08,02,23,4.90
2007,10,08,02,24,4.90
2007,10,08,02,25,4.90
2007,10,08,02,26,4.90
2007,10,08,02,27,4.90
2007,10,08,02,28,4.90
2007,10,08,02,29,4.90
2007,10,08,02,30,4.90
2007,10,08,02,31,4.80
2007,10,08,02,32,4.80
2007,10,08,02,33,4.80
2007,10,08,02,34,4.70
2007,10,08,02,35,4.70
2007,10,08,02,36,4.70
2007,10,08,02,37,4.60
2007,10,08,02,38,4.60
2007,10,08,02,39,4.60
2007,10,08,02,40,4.60
2007,10,08,02,41,4.60
2007,10,08,02,42,4.60
2007,10,08,02,43,4.60
2007,10,08,02,44,4.60
2007,10,08,02,45,4.50
2007,10,08,02,46,4.50
2007,10,08,02,47,4.40
2007,10,08,02,48,4.40
2007,10,08,02,49,4.40
2007,10,08,02,50,4.50
2007,10,08,02,51,4.50
2007,10,08,02,52,4.50
2007,10,08,02,53,4.50
2007,10,08,02,54,4.50
2007,10,08,02,55,4.50
2007,10,08,02,56,4.40
2007,10,08,02,57,4.40
2007,10,08,02,58,4.30
2007,10,08,02,59,4.30
2007,10,08,03,00,4.20
2007,10,08,03,01,4.20
2007,10,08,03,02,4.20
2007,10,08,03,03,4.20
2007,10,08,03,04,4.30
2007,10,08,03,05,4.30
2007,10,08,03,06,4.30
2007,10,08,03,07,4.30
2007,10,08,03,08,4.30
2007,10,08,03,09,4.30
2007,10,08,03,10,4.30
2007,10,08,03,11,4.30
2007,10,08,03,12,4.30
2007,10,08,03,13,4.40
2007,10,08,03,14,4.40
2007,10,08,03,15,4.40
2007,10,08,03,16,4.40
2007,10,08,03,17,4.30
2007,10,08,03,18,4.30
2007,10,08,03,19,4.30
2007,10,08,03,20,4.30
2007,10,08,03,21,4.40
2007,10,08,03,22,4.40
2007,10,08,03,23,4.40
2007,10,08,03,24,4.40
2007,10,08,03,25,4.40
2007,10,08,03,26,4.40
2007,10,08,03,27,4.40
2007,10,08,03,28,4.40
2007,10,08,03,29,4.40
2007,10,08,03,30,4.40
2007,10,08,03,31,4.30
2007,10,08,03,32,4.30
2007,10,08,03,33,4.30
2007,10,08,03,34,4.30
2007,10,08,03,35,4.30
2007,10,08,03,36,4.30
2007,10,08,03,37,4.30
2007,10,08,03,38,4.30
2007,10,08,03,39,4.30
2007,10,08,03,40,4.20
2007,10,08,03,41,4.20
2007,10,08,03,42,4.20
2007,10,08,03,43,4.20
2007,10,08,03,44,4.20
2007,10,08,03,45,4.20
2007,10,08,03,46,4.10
2007,10,08,03,47,4.10
2007,10,08,03,48,4.10
2007,10,08,03,49,4.00
2007,10,08,03,50,4.00
2007,10,08,03,51,4.00
2007,10,08,03,52,4.00
2007,10,08,03,53,3.90
2007,10,08,03,54,3.90
2007,10,08,03,55,3.90
2007,10,08,03,56,4.00
2007,10,08,03,57,4.00
2007,10,08,03,58,3.90
2007,10,08,03,59,3.80
2007,10,08,04,00,3.80
2007,10,08,04,01,3.80
2007,10,08,04,02,3.80
2007,10,08,04,03,3.80
2007,10,08,04,04,3.80
2007,10,08,04,05,3.80
2007,10,08,04,06,3.80
2007,10,08,04,07,3.80
2007,10,08,04,08,3.80
2007,10,08,04,09,3.80
2007,10,08,04,10,3.80
2007,10,08,04,11,3.80
2007,10,08,04,12,3.80
2007,10,08,04,13,3.80
2007,10,08,04,14,3.80
2007,10,08,04,15,3.80
2007,10,08,04,16,3.70
2007,10,08,04,17,3.70
2007,10,08,04,18,3.60
2007,10,08,04,19,3.60
2007,10,08,04,20,3.60
2007,10,08,04,21,3.60
2007,10,08,04,22,3.60
2007,10,08,04,23,3.60
2007,10,08,04,24,3.60
2007,10,08,04,25,3.60
2007,10,08,04,26,3.50
2007,10,08,04,27,3.50
2007,10,08,04,28,3.50
2007,10,08,04,29,3.50
2007,10,08,04,30,3.50
2007,10,08,04,31,3.50
2007,10,08,04,32,3.50
2007,10,08,04,33,3.50
2007,10,08,04,34,3.50
2007,10,08,04,35,3.50
2007,10,08,04,36,3.50
2007,10,08,04,37,3.50
2007,10,08,04,38,3.50
2007,10,08,04,39,3.50
2007,10,08,04,40,3.50
2007,10,08,04,41,3.50
2007,10,08,04,42,3.50
2007,10,08,04,43,3.60
2007,10,08,04,44,3.60
2007,10,08,04,45,3.60
2007,10,08,04,46,3.60
2007,10,08,04,47,3.60
2007,10,08,04,48,3.70
2007,10,08,04,49,3.60
2007,10,08,04,50,3.60
2007,10,08,04,51,3.60
2007,10,08,04,52,3.50
2007,10,08,04,53,3.50
2007,10,08,04,54,3.40
2007,10,08,04,55,3.40
2007,10,08,04,56,3.40
2007,10,08,04,57,3.30
2007,10,08,04,58,3.30
2007,10,08,04,59,3.30
2007,10,08,05,00,3.30
2007,10,08,05,01,3.30
2007,10,08,05,02,3.30
2007,10,08,05,03,3.30
2007,10,08,05,04,3.30
2007,10,08,05,05,3.30
2007,10,08,05,06,3.30
2007,10,08,05,07,3.30
2007,10,08,05,08,3.30
2007,10,08,05,09,3.30
2007,10,08,05,10,3.30
2007,10,08,05,11,3.30
2007,10,08,05,12,3.30
2007,10,08,05,13,3.30
2007,10,08,05,14,3.30
2007,10,08,05,15,3.30
2007,10,08,05,16,3.30
2007,10,08,05,17,3.30
2007,10,08,05,18,3.30
2007,10,08,05,19,3.30
2007,10,08,05,20,3.30
2007,10,08,05,21,3.30
2007,10,08,05,22,3.30
2007,10,08,05,23,3.30
2007,10,08,05,24,3.30
2007,10,08,05,25,3.30
2007,10,08,05,26,3.30
2007,10,08,05,27,3.30
2007,10,08,05,28,3.30
2007,10,08,05,29,3.30
2007,10,08,05,30,3.30
2007,10,08,05,31,3.30
2007,10,08,05,32,3.30
2007,10,08,05,33,3.30
2007,10,08,05,34,3.20
2007,10,08,05,35,3.20
2007,10,08,05,36,3.20
2007,10,08,05,37,3.30
2007,10,08,05,38,3.30
2007,10,08,05,39,3.30
2007,10,08,05,40,3.30
2007,10,08,05,41,3.30
2007,10,08,05,42,3.30
2007,10,08,05,43,3.30
2007,10,08,05,44,3.40
2007,10,08,05,45,3.40
2007,10,08,05,46,3.40
2007,10,08,05,47,3.40
2007,10,08,05,48,3.40
2007,10,08,05,49,3.40
2007,10,08,05,50,3.40
2007,10,08,05,51,3.40
2007,10,08,05,52,3.40
2007,10,08,05,53,3.40
2007,10,08,05,54,3.40
2007,10,08,05,55,3.40
2007,10,08,05,56,3.30
2007,10,08,05,57,3.30
2007,10,08,05,58,3.30
2007,10,08,05,59,3.30
2007,10,08,06,00,3.30
2007,10,08,06,01,3.30
2007,10,08,06,02,3.30
2007,10,08,06,03,3.30
2007,10,08,06,04,3.30
2007,10,08,06,05,3.30
2007,10,08,06,06,3.30
2007,10,08,06,07,3.30
2007,10,08,06,08,3.30
2007,10,08,06,09,3.30
2007,10,08,06,10,3.30
2007,10,08,06,11,3.30
2007,10,08,06,12,3.30
2007,10,08,06,13,3.30
2007,10,08,06,14,3.30
2007,10,08,06,15,3.40
2007,10,08,06,16,3.40
2007,10,08,06,17,3.50
2007,10,08,06,18,3.60
2007,10,08,06,19,3.60
2007,10,08,06,20,3.70
2007,10,08,06,21,3.70
2007,10,08,06,22,3.80
2007,10,08,06,23,3.80
2007,10,08,06,24,3.80
2007,10,08,06,25,3.80
2007,10,08,06,26,3.80
2007,10,08,06,27,3.80
2007,10,08,06,28,3.80
2007,10,08,06,29,3.80
2007,10,08,06,30,3.80
2007,10,08,06,31,3.80
2007,10,08,06,32,3.80
2007,10,08,06,33,3.80
2007,10,08,06,34,3.80
2007,10,08,06,35,3.90
2007,10,08,06,36,3.90
2007,10,08,06,37,4.00
2007,10,08,06,38,4.10
2007,10,08,06,39,4.10
2007,10,08,06,40,4.10
2007,10,08,06,41,4.20
2007,10,08,06,42,4.20
2007,10,08,06,43,4.10
2007,10,08,06,44,4.10
2007,10,08,06,45,4.10
2007,10,08,06,46,4.10
2007,10,08,06,47,4.10
2007,10,08,06,48,4.10
2007,10,08,06,49,4.20
2007,10,08,06,50,4.20
2007,10,08,06,51,4.20
2007,10,08,06,52,4.20
2007,10,08,06,53,4.20
2007,10,08,06,54,4.20
2007,10,08,06,55,4.20
2007,10,08,06,56,4.20
2007,10,08,06,57,4.20
2007,10,08,06,58,4.20
2007,10,08,06,59,4.20
2007,10,08,07,00,4.20
2007,10,08,07,01,4.20
2007,10,08,07,02,4.20
2007,10,08,07,03,4.20
2007,10,08,07,04,4.20
2007,10,08,07,05,4.20
2007,10,08,07,06,4.20
2007,10,08,07,07,4.20
2007,10,08,07,08,4.20
2007,10,08,07,09,4.20
2007,10,08,07,10,4.20
2007,10,08,07,11,4.20
2007,10,08,07,12,4.20
2007,10,08,07,13,4.20
2007,10,08,07,14,4.20
2007,10,08,07,15,4.20
2007,10,08,07,16,4.30
2007,10,08,07,17,4.30
2007,10,08,07,18,4.30
2007,10,08,07,19,4.30
2007,10,08,07,20,4.30
2007,10,08,07,21,4.30
2007,10,08,07,22,4.20
2007,10,08,07,23,4.20
2007,10,08,07,24,4.20
2007,10,08,07,25,4.20
2007,10,08,07,26,4.20
2007,10,08,07,27,4.20
2007,10,08,07,28,4.20
2007,10,08,07,29,4.20
2007,10,08,07,30,4.20
2007,10,08,07,31,4.20
2007,10,08,07,32,4.20
2007,10,08,07,33,4.20
2007,10,08,07,34,4.20
2007,10,08,07,35,4.20
2007,10,08,07,36,4.20
2007,10,08,07,37,4.20
2007,10,08,07,38,4.20
2007,10,08,07,39,4.20
2007,10,08,07,40,4.20
2007,10,08,07,41,4.20
2007,10,08,07,42,4.20
2007,10,08,07,43,4.20
2007,10,08,07,44,4.20
2007,10,08,07,45,4.20
2007,10,08,07,46,4.20
2007,10,08,07,47,4.20
2007,10,08,07,48,4.20
2007,10,08,07,49,4.20
2007,10,08,07,50,4.20
2007,10,08,07,51,4.20
2007,10,08,07,52,4.20
2007,10,08,07,53,4.30
2007,10,08,07,54,4.30
2007,10,08,07,55,4.30
2007,10,08,07,56,4.40
2007,10,08,07,57,4.40
2007,10,08,07,58,4.40
2007,10,08,07,59,4.40
2007,10,08,08,00,4.50
2007,10,08,08,01,4.50
2007,10,08,08,02,4.50
2007,10,08,08,03,4.60
2007,10,08,08,04,4.60
2007,10,08,08,05,4.70
2007,10,08,08,06,4.70
2007,10,08,08,07,4.80
2007,10,08,08,08,4.90
2007,10,08,08,09,4.90
2007,10,08,08,10,5.10
2007,10,08,08,11,5.10
2007,10,08,08,12,5.20
2007,10,08,08,13,5.30
2007,10,08,08,14,5.30
2007,10,08,08,15,5.30
2007,10,08,08,16,5.40
2007,10,08,08,17,5.40
2007,10,08,08,18,5.40
2007,10,08,08,19,5.50
2007,10,08,08,20,5.50
2007,10,08,08,21,5.60
2007,10,08,08,22,5.70
2007,10,08,08,23,5.70
2007,10,08,08,24,5.80
2007,10,08,08,25,5.80
2007,10,08,08,26,5.90
2007,10,08,08,27,6.00
2007,10,08,08,28,6.00
2007,10,08,08,29,6.00
2007,10,08,08,30,6.10
2007,10,08,08,31,6.10
2007,10,08,08,32,6.20
2007,10,08,08,33,6.20
2007,10,08,08,34,6.20
2007,10,08,08,35,6.20
2007,10,08,08,36,6.30
2007,10,08,08,37,6.30
2007,10,08,08,38,6.30
2007,10,08,08,39,6.30
2007,10,08,08,40,6.40
2007,10,08,08,41,6.40
2007,10,08,08,42,6.40
2007,10,08,08,43,6.40
2007,10,08,08,44,6.40
2007,10,08,08,45,6.40
2007,10,08,08,46,6.50
2007,10,08,08,47,6.60
2007,10,08,08,48,6.60
2007,10,08,08,49,6.60
2007,10,08,08,50,6.60
2007,10,08,08,51,6.60
2007,10,08,08,52,6.70
2007,10,08,08,53,6.70
2007,10,08,08,54,6.70
2007,10,08,08,55,6.80
2007,10,08,08,56,6.80
2007,10,08,08,57,6.80
2007,10,08,08,58,6.90
2007,10,08,08,59,7.00
2007,10,08,09,00,7.00
2007,10,08,09,01,7.00
2007,10,08,09,02,7.10
2007,10,08,09,03,7.10
2007,10,08,09,04,7.20
2007,10,08,09,05,7.20
2007,10,08,09,06,7.30
2007,10,08,09,07,7.30
2007,10,08,09,08,7.30
2007,10,08,09,09,7.40
2007,10,08,09,10,7.40
2007,10,08,09,11,7.50
2007,10,08,09,12,7.50
2007,10,08,09,13,7.60
2007,10,08,09,14,7.60
2007,10,08,09,15,7.70
2007,10,08,09,16,7.70
2007,10,08,09,17,7.70
2007,10,08,09,18,7.80
2007,10,08,09,19,7.80
2007,10,08,09,20,7.80
2007,10,08,09,21,7.80
2007,10,08,09,22,7.80
2007,10,08,09,23,7.90
2007,10,08,09,24,7.90
2007,10,08,09,25,7.90
2007,10,08,09,26,7.90
2007,10,08,09,27,7.90
2007,10,08,09,28,8.00
2007,10,08,09,29,8.00
2007,10,08,09,30,8.00
2007,10,08,09,31,8.00
2007,10,08,09,32,8.00
2007,10,08,09,33,8.00
2007,10,08,09,34,8.10
2007,10,08,09,35,8.10
2007,10,08,09,36,8.10
2007,10,08,09,37,8.10
2007,10,08,09,38,8.20
2007,10,08,09,39,8.20
2007,10,08,09,40,8.20
2007,10,08,09,41,8.20
2007,10,08,09,42,8.20
2007,10,08,09,43,8.20
2007,10,08,09,44,8.20
2007,10,08,09,45,8.20
2007,10,08,09,46,8.30
2007,10,08,09,47,8.30
2007,10,08,09,48,8.30
2007,10,08,09,49,8.30
2007,10,08,09,50,8.30
2007,10,08,09,51,8.40
2007,10,08,09,52,8.40
2007,10,08,09,53,8.30
2007,10,08,09,54,8.30
2007,10,08,09,55,8.30
2007,10,08,09,56,8.30
2007,10,08,09,57,8.30
2007,10,08,09,58,8.30
2007,10,08,09,59,8.30
2007,10,08,10,00,8.30
2007,10,08,10,01,8.30
2007,10,08,10,02,8.30
2007,10,08,10,03,8.30
2007,10,08,10,04,8.30
2007,10,08,10,05,8.30
2007,10,08,10,06,8.30
2007,10,08,10,07,8.30
2007,10,08,10,08,8.30
2007,10,08,10,09,8.30
2007,10,08,10,10,8.30
2007,10,08,10,11,8.40
2007,10,08,10,12,8.40
2007,10,08,10,13,8.40
2007,10,08,10,14,8.40
2007,10,08,10,15,8.40
2007,10,08,10,16,8.50
2007,10,08,10,17,8.50
2007,10,08,10,18,8.50
2007,10,08,10,19,8.50
2007,10,08,10,20,8.60
2007,10,08,10,21,8.60
2007,10,08,10,22,8.60
2007,10,08,10,23,8.60
2007,10,08,10,24,8.70
2007,10,08,10,25,8.70
2007,10,08,10,26,8.70
2007,10,08,10,27,8.70
2007,10,08,10,28,8.70
2007,10,08,10,29,8.70
2007,10,08,10,30,8.70
2007,10,08,10,31,8.80
2007,10,08,10,32,8.80
2007,10,08,10,33,8.90
2007,10,08,10,34,8.90
2007,10,08,10,35,8.90
2007,10,08,10,36,8.90
2007,10,08,10,37,8.90
2007,10,08,10,38,9.00
2007,10,08,10,39,9.00
2007,10,08,10,40,9.00
2007,10,08,10,41,9.00
2007,10,08,10,42,9.00
2007,10,08,10,43,9.00
2007,10,08,10,44,9.00
2007,10,08,10,45,9.00
2007,10,08,10,46,9.00
2007,10,08,10,47,9.00
2007,10,08,10,48,9.00
2007,10,08,10,49,9.00
2007,10,08,10,50,9.00
2007,10,08,10,51,9.00
2007,10,08,10,52,9.10
2007,10,08,10,53,9.10
2007,10,08,10,54,9.00
2007,10,08,10,55,9.10
2007,10,08,10,56,9.00
2007,10,08,10,57,9.00
2007,10,08,10,58,9.00
2007,10,08,10,59,9.00
2007,10,08,11,00,8.90
2007,10,08,11,01,8.90
2007,10,08,11,02,9.00
2007,10,08,11,03,9.00
2007,10,08,11,04,9.00
2007,10,08,11,05,9.00
2007,10,08,11,06,9.00
2007,10,08,11,07,9.00
2007,10,08,11,08,8.90
2007,10,08,11,09,8.90
2007,10,08,11,10,8.90
2007,10,08,11,11,8.90
2007,10,08,11,12,9.00
2007,10,08,11,13,9.00
2007,10,08,11,14,9.10
2007,10,08,11,15,9.10
2007,10,08,11,16,9.20
2007,10,08,11,17,9.20
2007,10,08,11,18,9.20
2007,10,08,11,19,9.20
2007,10,08,11,20,9.20
2007,10,08,11,21,9.20
2007,10,08,11,22,9.30
2007,10,08,11,23,9.30
2007,10,08,11,24,9.40
2007,10,08,11,25,9.40
2007,10,08,11,26,9.40
2007,10,08,11,27,9.50
2007,10,08,11,28,9.50
2007,10,08,11,29,9.50
2007,10,08,11,30,9.60
2007,10,08,11,31,9.60
2007,10,08,11,32,9.60
2007,10,08,11,33,9.50
2007,10,08,11,34,9.40
2007,10,08,11,35,9.40
2007,10,08,11,36,9.30
2007,10,08,11,37,9.30
2007,10,08,11,38,9.30
2007,10,08,11,39,9.40
2007,10,08,11,40,9.40
2007,10,08,11,41,9.50
2007,10,08,11,42,9.50
2007,10,08,11,43,9.50
2007,10,08,11,44,9.50
2007,10,08,11,45,9.50
2007,10,08,11,46,9.60
2007,10,08,11,47,9.60
2007,10,08,11,48,9.50
2007,10,08,11,49,9.50
2007,10,08,11,50,9.50
2007,10,08,11,51,9.50
2007,10,08,11,52,9.50
2007,10,08,11,53,9.50
2007,10,08,11,54,9.50
2007,10,08,11,55,9.50
2007,10,08,11,56,9.60
2007,10,08,11,57,9.60
2007,10,08,11,58,9.60
2007,10,08,11,59,9.70
2007,10,08,12,00,9.70
2007,10,08,12,01,9.70
2007,10,08,12,02,9.70
2007,10,08,12,03,9.70
2007,10,08,12,04,9.70
2007,10,08,12,05,9.70
2007,10,08,12,06,9.70
2007,10,08,12,07,9.70
2007,10,08,12,08,9.70
2007,10,08,12,09,9.70
2007,10,08,12,10,9.80
2007,10,08,12,11,9.80
2007,10,08,12,12,9.80
2007,10,08,12,13,9.80
2007,10,08,12,14,9.80
2007,10,08,12,15,9.80
2007,10,08,12,16,9.80
2007,10,08,12,17,9.70
2007,10,08,12,18,9.70
2007,10,08,12,19,9.70
2007,10,08,12,20,9.70
2007,10,08,12,21,9.70
2007,10,08,12,22,9.70
2007,10,08,12,23,9.60
2007,10,08,12,24,9.60
2007,10,08,12,25,9.60
2007,10,08,12,26,9.70
2007,10,08,12,27,9.70
2007,10,08,12,28,9.70
2007,10,08,12,29,9.80
2007,10,08,12,30,9.90
2007,10,08,12,31,9.90
2007,10,08,12,32,9.90
2007,10,08,12,33,10.10
2007,10,08,12,34,10.10
2007,10,08,12,35,10.10
2007,10,08,12,36,10.10
2007,10,08,12,37,10.10
2007,10,08,12,38,10.10
2007,10,08,12,39,10.10
2007,10,08,12,40,10.10
2007,10,08,12,41,10.10
2007,10,08,12,42,10.00
2007,10,08,12,43,9.90
2007,10,08,12,44,9.90
2007,10,08,12,45,9.90
2007,10,08,12,46,9.90
2007,10,08,12,47,9.90
2007,10,08,12,48,9.90
2007,10,08,12,49,10.00
2007,10,08,12,50,10.00
2007,10,08,12,51,10.10
2007,10,08,12,52,10.10
2007,10,08,12,53,10.10
2007,10,08,12,54,10.10
2007,10,08,12,55,10.10
2007,10,08,12,56,10.20
2007,10,08,12,57,10.20
2007,10,08,12,58,10.30
2007,10,08,12,59,10.30
2007,10,08,13,00,10.30
2007,10,08,13,01,10.40
2007,10,08,13,02,10.40
2007,10,08,13,03,10.40
2007,10,08,13,04,10.40
2007,10,08,13,05,10.50
2007,10,08,13,06,10.60
2007,10,08,13,07,10.50
2007,10,08,13,08,10.40
2007,10,08,13,09,10.40
2007,10,08,13,10,10.40
2007,10,08,13,11,10.40
2007,10,08,13,12,10.40
2007,10,08,13,13,10.40
2007,10,08,13,14,10.40
2007,10,08,13,15,10.40
2007,10,08,13,16,10.40
2007,10,08,13,17,10.40
2007,10,08,13,18,10.30
2007,10,08,13,19,10.30
2007,10,08,13,20,10.40
2007,10,08,13,21,10.40
2007,10,08,13,22,10.40
2007,10,08,13,23,10.40
2007,10,08,13,24,10.40
2007,10,08,13,25,10.30
2007,10,08,13,26,10.30
2007,10,08,13,27,10.30
2007,10,08,13,28,10.30
2007,10,08,13,29,10.30
2007,10,08,13,30,10.20
2007,10,08,13,31,10.20
2007,10,08,13,32,10.10
2007,10,08,13,33,10.10
2007,10,08,13,34,10.10
2007,10,08,13,35,10.10
2007,10,08,13,36,10.00
2007,10,08,13,37,9.90
2007,10,08,13,38,9.90
2007,10,08,13,39,9.90
2007,10,08,13,40,9.90
2007,10,08,13,41,9.90
2007,10,08,13,42,9.90
2007,10,08,13,43,9.90
2007,10,08,13,44,9.90
2007,10,08,13,45,9.90
2007,10,08,13,46,9.90
2007,10,08,13,47,9.90
2007,10,08,13,48,10.00
2007,10,08,13,49,10.10
2007,10,08,13,50,10.20
2007,10,08,13,51,10.20
2007,10,08,13,52,10.20
2007,10,08,13,53,10.30
2007,10,08,13,54,10.30
2007,10,08,13,55,10.40
2007,10,08,13,56,10.40
2007,10,08,13,57,10.30
2007,10,08,13,58,10.30
2007,10,08,13,59,10.40
2007,10,08,14,00,10.40
2007,10,08,14,01,10.30
2007,10,08,14,02,10.30
2007,10,08,14,03,10.20
2007,10,08,14,04,10.30
2007,10,08,14,05,10.30
2007,10,08,14,06,10.40
2007,10,08,14,07,10.40
2007,10,08,14,08,10.40
2007,10,08,14,09,10.40
2007,10,08,14,10,10.40
2007,10,08,14,11,10.40
2007,10,08,14,12,10.40
2007,10,08,14,13,10.40
2007,10,08,14,14,10.40
2007,10,08,14,15,10.50
2007,10,08,14,16,10.60
2007,10,08,14,17,10.60
2007,10,08,14,18,10.50
2007,10,08,14,19,10.40
2007,10,08,14,20,10.40
2007,10,08,14,21,10.40
2007,10,08,14,22,10.40
2007,10,08,14,23,10.40
2007,10,08,14,24,10.60
2007,10,08,14,25,10.60
2007,10,08,14,26,10.60
2007,10,08,14,27,10.60
2007,10,08,14,28,10.60
2007,10,08,14,29,10.60
2007,10,08,14,30,10.60
2007,10,08,14,31,10.60
2007,10,08,14,32,10.70
2007,10,08,14,33,10.70
2007,10,08,14,34,10.60
2007,10,08,14,35,10.70
2007,10,08,14,36,10.80
2007,10,08,14,37,10.80
2007,10,08,14,38,10.70
2007,10,08,14,39,10.80
2007,10,08,14,40,10.70
2007,10,08,14,41,10.60
2007,10,08,14,42,10.60
2007,10,08,14,43,10.60
2007,10,08,14,44,10.60
2007,10,08,14,45,10.60
2007,10,08,14,46,10.60
2007,10,08,14,47,10.60
2007,10,08,14,48,10.60
2007,10,08,14,49,10.60
2007,10,08,14,50,10.60
2007,10,08,14,51,10.60
2007,10,08,14,52,10.60
2007,10,08,14,53,10.70
2007,10,08,14,54,10.80
2007,10,08,14,55,10.90
2007,10,08,14,56,10.90
2007,10,08,14,57,11.00
2007,10,08,14,58,11.10
2007,10,08,14,59,11.10
2007,10,08,15,00,11.10
2007,10,08,15,01,11.10
2007,10,08,15,02,11.10
2007,10,08,15,03,11.10
2007,10,08,15,04,11.10
2007,10,08,15,05,11.20
2007,10,08,15,06,11.20
2007,10,08,15,07,11.20
2007,10,08,15,08,11.20
2007,10,08,15,09,11.10
2007,10,08,15,10,11.10
2007,10,08,15,11,11.10
2007,10,08,15,12,11.10
2007,10,08,15,13,11.10
2007,10,08,15,14,11.10
2007,10,08,15,15,11.00
2007,10,08,15,16,10.90
2007,10,08,15,17,10.90
2007,10,08,15,18,10.90
2007,10,08,15,19,10.90
2007,10,08,15,20,10.90
2007,10,08,15,21,10.90
2007,10,08,15,22,10.90
2007,10,08,15,23,10.90
2007,10,08,15,24,10.90
2007,10,08,15,25,10.90
2007,10,08,15,26,10.90
2007,10,08,15,27,10.90
2007,10,08,15,28,10.90
2007,10,08,15,29,10.90
2007,10,08,15,30,11.10
2007,10,08,15,31,11.10
2007,10,08,15,32,11.10
2007,10,08,15,33,11.10
2007,10,08,15,34,11.00
2007,10,08,15,35,11.10
2007,10,08,15,36,11.10
2007,10,08,15,37,11.10
2007,10,08,15,38,11.10
2007,10,08,15,39,11.10
2007,10,08,15,40,11.10
2007,10,08,15,41,11.10
2007,10,08,15,42,11.10
2007,10,08,15,43,11.10
2007,10,08,15,44,11.10
2007,10,08,15,45,11.10
2007,10,08,15,46,11.10
2007,10,08,15,47,11.10
2007,10,08,15,48,11.10
2007,10,08,15,49,11.10
2007,10,08,15,50,11.10
2007,10,08,15,51,11.10
2007,10,08,15,52,11.10
2007,10,08,15,53,11.10
2007,10,08,15,54,11.20
2007,10,08,15,55,11.20
2007,10,08,15,56,11.20
2007,10,08,15,57,11.20
2007,10,08,15,58,11.20
2007,10,08,15,59,11.20
2007,10,08,16,00,11.20
2007,10,08,16,01,11.20
2007,10,08,16,02,11.20
2007,10,08,16,03,11.20
2007,10,08,16,04,11.20
2007,10,08,16,05,11.20
2007,10,08,16,06,11.20
2007,10,08,16,07,11.20
2007,10,08,16,08,11.20
2007,10,08,16,09,11.20
2007,10,08,16,10,11.10
2007,10,08,16,11,11.10
2007,10,08,16,12,11.10
2007,10,08,16,13,11.10
2007,10,08,16,14,11.10
2007,10,08,16,15,11.10
2007,10,08,16,16,11.10
2007,10,08,16,17,11.00
2007,10,08,16,18,10.90
2007,10,08,16,19,11.10
2007,10,08,16,20,11.10
2007,10,08,16,21,11.00
2007,10,08,16,22,10.90
2007,10,08,16,23,10.90
2007,10,08,16,24,10.90
2007,10,08,16,25,10.90
2007,10,08,16,26,10.90
2007,10,08,16,27,10.90
2007,10,08,16,28,10.90
2007,10,08,16,29,10.90
2007,10,08,16,30,11.10
2007,10,08,16,31,11.10
2007,10,08,16,32,11.00
2007,10,08,16,33,10.90
2007,10,08,16,34,10.90
2007,10,08,16,35,10.90
2007,10,08,16,36,10.90
2007,10,08,16,37,10.90
2007,10,08,16,38,10.90
2007,10,08,16,39,10.90
2007,10,08,16,40,10.90
2007,10,08,16,41,10.90
2007,10,08,16,42,10.90
2007,10,08,16,43,10.90
2007,10,08,16,44,10.90
2007,10,08,16,45,10.90
2007,10,08,16,46,10.80
2007,10,08,16,47,10.80
2007,10,08,16,48,10.80
2007,10,08,16,49,10.80
2007,10,08,16,50,10.70
2007,10,08,16,51,10.70
2007,10,08,16,52,10.70
2007,10,08,16,53,10.60
2007,10,08,16,54,10.60
2007,10,08,16,55,10.60
2007,10,08,16,56,10.60
2007,10,08,16,57,10.60
2007,10,08,16,58,10.60
2007,10,08,16,59,10.60
2007,10,08,17,00,10.60
2007,10,08,17,01,10.60
2007,10,08,17,02,10.60
2007,10,08,17,03,10.60
2007,10,08,17,04,10.60
2007,10,08,17,05,10.60
2007,10,08,17,06,10.50
2007,10,08,17,07,10.40
2007,10,08,17,08,10.40
2007,10,08,17,09,10.40
2007,10,08,17,10,10.40
2007,10,08,17,11,10.40
2007,10,08,17,12,10.40
2007,10,08,17,13,10.40
2007,10,08,17,14,10.40
2007,10,08,17,15,10.40
2007,10,08,17,16,10.40
2007,10,08,17,17,10.40
2007,10,08,17,18,10.40
2007,10,08,17,19,10.40
2007,10,08,17,20,10.40
2007,10,08,17,21,10.40
2007,10,08,17,22,10.40
2007,10,08,17,23,10.40
2007,10,08,17,24,10.40
2007,10,08,17,25,10.40
2007,10,08,17,26,10.40
2007,10,08,17,27,10.40
2007,10,08,17,28,10.40
2007,10,08,17,29,10.30
2007,10,08,17,30,10.30
2007,10,08,17,31,10.30
2007,10,08,17,32,10.30
2007,10,08,17,33,10.30
2007,10,08,17,34,10.30
2007,10,08,17,35,10.30
2007,10,08,17,36,10.30
2007,10,08,17,37,10.30
2007,10,08,17,38,10.30
2007,10,08,17,39,10.20
2007,10,08,17,40,10.20
2007,10,08,17,41,10.20
2007,10,08,17,42,10.20
2007,10,08,17,43,10.20
2007,10,08,17,44,10.20
2007,10,08,17,45,10.20
2007,10,08,17,46,10.20
2007,10,08,17,47,10.10
2007,10,08,17,48,10.10
2007,10,08,17,49,10.10
2007,10,08,17,50,10.10
2007,10,08,17,51,10.10
2007,10,08,17,52,10.10